Location: Baubigny
(46.9698°N, 4.6838°E)
Time: 12:22:15
(UTC+00:00)

Daily predictions for brighter satellites

Satellite Brightness Start Highest point End
(mag) Time Altitude Azimuth Time Altitude Azimuth Time Altitude Azimuth
Cosmos 972 Rocket 3.9 19:28:28 10° NNW 19:33:31 70° ENE 19:38:22 10° SSE
Cosmos 1441 Rocket 4.1 19:34:49 10° SSE 19:38:07 28° E 19:41:24 10° NNE
Cosmos 614 Rocket 4.5 19:36:52 10° S 19:41:36 38° ESE 19:46:22 10° NE
Cosmos 1900 4.3 19:39:48 10° SSW 19:44:41 67° ESE 19:49:41 10° NE
MONITOR-E 3.9 19:45:32 10° S 19:47:53 63° WSW 19:50:15 10° NNW
USA 267 3.4 19:42:28 10° ENE 19:48:50 51° SE 19:55:10 10° SSW
IRIDIUM 103 4.5 19:44:49 10° SSE 19:49:54 57° E 19:55:02 10° N
Cosmos 1821 Rocket 4.2 19:46:11 10° SSE 19:52:03 50° E 19:58:01 10° NNE
COSMOS 2406 3.3 19:48:13 10° S 19:53:50 58° ESE 19:59:28 10° NNE
Shenzhou-11 Module 2.5 19:51:50 10° WSW 19:53:57 28° S 19:55:30 14° SE
Cosmos 1743 Rocket 3.9 19:50:41 10° SSW 19:55:06 70° W 19:59:36 10° N
Cosmos 2366 rocket 4.4 19:49:45 10° SSW 19:55:58 69° W 20:02:10 10° N
CZ-2C R/B 3.7 19:51:56 10° NNE 19:56:35 67° ESE 20:01:05 10° S
SL-16 R/B 4.3 19:54:01 10° N 19:57:06 15° NE 20:00:11 10° ENE
Intercosmos 25 3.5 19:53:35 10° N 19:58:08 54° ENE 20:01:25 10° SSE
ERS-1 Rocket 4.5 19:56:09 10° ESE 19:59:55 22° ENE 20:03:41 10° NNE
Lacrosse 5 3.5 19:55:35 10° NW 19:59:59 28° N 20:04:22 10° ENE
Cosmos 2369 4.0 19:57:26 10° NNW 20:03:04 55° ENE 20:08:05 13° SE
Cosmos 1862 3.3 19:59:18 10° S 20:03:19 78° E 20:07:25 10° NNE
Sich 1 3.3 19:59:59 10° S 20:04:16 51° E 20:08:35 10° NNE
SJ-6B 4.5 20:01:54 10° SSW 20:05:40 35° W 20:09:23 10° NNW
Meteor 2-6 Rocket 4.4 20:01:45 10° NNW 20:07:15 75° W 20:12:51 10° S
Cosmos 1818 3.6 20:02:12 10° NW 20:07:41 78° NE 20:12:24 14° SE
BREEZE-M DEB (TANK) 2.5 20:04:15 10° W 20:07:48 56° NNW 20:09:45 10° ENE
IRIDIUM 106 4.3 20:02:58 10° S 20:08:11 81° E 20:13:25 10° N
Cosmos 2082 Rocket 2.9 20:04:06 10° SSE 20:09:06 33° ESE 20:14:05 10° NE
Cosmos 2278 4.3 20:06:49 10° NNW 20:12:19 45° NE 20:16:44 15° SE
Cosmos 2123 Rocket 4.4 20:06:52 10° N 20:12:52 48° ENE 20:18:05 14° SSE
Spot 2 Rocket 3.9 20:11:25 14° SE 20:15:39 49° ENE 20:20:34 10° N
Cosmos 1000 Rocket 4.5 20:10:06 10° N 20:16:25 80° E 20:22:37 10° SSE
Resurs 1-3 4.3 20:15:04 10° S 20:19:21 52° W 20:23:39 10° NNW
Cosmos 2322 Rocket 4.2 20:16:08 10° N 20:19:45 17° NE 20:23:21 10° E
Meteor 1-4 Rocket 3.1 20:17:15 10° N 20:20:34 39° ENE 20:22:26 21° SE
Cosmos 2239 Rocket 4.4 20:15:15 10° S 20:21:19 71° E 20:27:27 10° NNE
Cosmos 1190 Rocket 4.2 20:16:48 10° S 20:21:52 50° ESE 20:27:00 10° NNE
Cosmos 1184 Rocket 4.1 20:21:02 20° ESE 20:21:54 23° E 20:24:34 10° NE
Terra 3.4 20:21:08 14° ESE 20:23:48 21° ENE 20:27:23 10° NNE
CZ-2C R/B 3.7 20:19:16 10° N 20:24:13 47° WNW 20:29:11 10° SW
USA 234 3.4 20:18:46 13° ESE 20:24:35 71° NNE 20:31:06 10° NW
Cosmos 407 Rocket 3.5 20:19:30 10° S 20:24:47 65° ESE 20:30:02 10° NNE
SL-8 R/B 4.5 20:21:08 10° W 20:25:41 41° SSW 20:28:49 18° SSE
Cosmos 1666 Rocket 3.6 20:21:38 10° S 20:25:51 57° E 20:30:06 10° NNE
Cosmos 1238 Rocket 4.0 20:28:02 16° E 20:28:02 16° E 20:29:51 10° NE
MetOp-B 4.1 20:25:44 13° SSE 20:30:35 85° ENE 20:35:59 10° NNW
Meteor 1-27 Rocket 3.8 20:25:25 10° N 20:31:22 89° E 20:36:53 12° S
Cosmos 2360 Rocket 4.4 20:30:57 10° N 20:33:38 13° NE 20:36:18 10° ENE
BREEZE-M DEB (TANK) 3.9 20:33:50 10° W 20:37:12 18° SW 20:39:00 12° SSW
USA 238 DEB 4.2 20:31:44 10° S 20:37:36 35° ESE 20:43:40 10° NE
Cosmos 1805 Rocket 4.3 20:33:18 10° SSW 20:37:39 54° WNW 20:42:02 10° N
USA 238 4.2 20:31:52 10° S 20:37:43 35° ESE 20:43:46 10° NE
SPOT 5 3.5 20:35:54 21° ESE 20:38:00 33° ENE 20:41:54 10° N
SPOT 1/Viking Rocket 3.6 20:39:53 20° SSE 20:43:28 70° ENE 20:48:42 10° N
Cosmos 1980 Rocket 2.3 20:37:54 10° NNW 20:43:35 67° ENE 20:47:05 24° SE
SL-4 R/B 1.7 20:43:39 10° SW 20:47:33 60° SSE 20:51:11 10° ENE
BREEZE-M DEB (TANK) 2.8 20:45:54 10° W 20:48:37 69° N 20:55:43 10° ENE
Genesis I 3.4 20:45:15 10° NNW 20:49:06 59° NE 20:50:44 31° ESE
Cosmos 405 Rocket 3.6 20:49:21 27° E 20:49:38 27° E 20:52:50 10° NNE
Cosmos 1140 Rocket 3.4 20:45:11 10° SSW 20:50:26 83° ESE 20:55:43 10° NNE
ATLAS 5 CENTAUR R/B 3.5 20:46:45 10° NW 20:52:04 37° WSW 20:57:17 13° S
USA 32 4.0 20:53:02 20° S 20:56:35 67° E 21:01:48 10° N
Cosmos 1633 Rocket 3.2 20:55:05 12° SSW 20:59:08 78° W 21:03:35 10° N
Cosmos 1697 Rocket 3.2 20:53:46 10° NW 20:59:14 54° WSW 21:03:04 19° S
Cosmos 1833 Rocket 3.1 20:54:03 10° SW 20:59:38 66° WNW 21:05:16 10° NNE
Cosmos 1867 3.5 21:00:37 10° SSW 21:06:00 67° ESE 21:11:26 10° NE
CENTAUR R/B 3.1 21:04:46 28° SE 21:06:13 31° ESE 21:12:03 10° NE
Meteor 1-18 Rocket 4.4 21:01:51 10° N 21:07:22 55° ENE 21:09:50 31° SE
Okean 1-7 3.9 21:03:34 10° N 21:07:33 34° ENE 21:08:30 30° E
Resurs 01 Rocket 3.6 21:05:54 10° SSW 21:09:33 25° W 21:13:13 10° NW
Landsat 7 4.4 21:09:00 20° S 21:12:06 53° W 21:16:47 10° NNW
FALCON 9 DEB 3.0 21:09:45 10° SW 21:13:15 75° SSE 21:15:22 22° ENE
deb Kosmos-1763 4.3 21:14:16 18° SSW 21:16:48 66° WNW 21:20:27 10° NNE
Meteor 2-4 Rocket 4.5 21:11:39 10° N 21:16:58 38° ENE 21:18:53 29° ESE
Cosmos 1515 4.2 21:14:20 10° N 21:18:01 42° ENE 21:18:22 41° E
Cosmos 676 Rocket 4.0 21:14:02 10° SSW 21:19:20 88° WNW 21:24:43 10° NNE
Cosmos 192 4.4 21:16:04 10° NNW 21:20:58 74° WSW 21:22:57 36° S
ATLAS 5 CENTAUR R/B 3.4 21:18:50 10° NNW 21:21:09 25° NE 21:23:25 18° E
Meteor 1-25 Rocket 4.1 21:17:53 22° S 21:21:35 86° E 21:27:13 10° NNE
Cosmos 1470 Rocket 3.6 21:19:31 28° SSW 21:21:51 80° W 21:26:17 10° N
GP-B 4.0 21:23:31 10° N 21:27:46 46° W 21:30:41 19° SSW
USA 267 3.7 21:25:30 10° NE 21:31:57 63° NNW 21:38:23 10° WSW
NOSS 3-2 (A) 3.2 21:26:21 10° SSW 21:32:01 75° SE 21:38:31 10° NE
Cosmos 921 Rocket 3.0 21:29:42 10° NNW 21:33:56 71° WSW 21:34:50 51° S
NOSS 3-2 (C) 3.4 21:35:51 35° S 21:37:59 53° ESE 21:44:13 10° NE
ERS-1 Rocket 3.4 21:36:08 32° SSW 21:38:18 58° W 21:43:17 10° NNW
Cosmos 841 Rocket 4.2 21:35:37 10° N 21:40:33 41° ENE 21:42:00 34° E
SAR-Lupe-2 4.0 21:37:32 10° N 21:41:05 58° WNW 21:41:55 44° SW
Cosmos 540 Rocket 4.2 21:37:07 10° N 21:42:00 40° ENE 21:43:22 34° E
SL-16 R/B 2.4 21:36:49 10° NNW 21:42:28 60° ENE 21:44:17 41° ESE
Lacrosse 5 2.1 21:38:42 10° NW 21:43:45 62° NNE 21:45:31 38° E
Cosmos 468 Rocket 3.9 21:38:56 10° NNW 21:44:17 88° ENE 21:45:45 49° SSE
Cosmos 1741 Rocket 3.9 21:48:23 51° SSE 21:49:31 65° ESE 21:54:46 10° NNE
Cosmos 1570 Rocket 4.4 21:46:42 10° NNW 21:51:54 52° ENE 21:53:10 42° ESE
Cosmos 2219 Rocket 4.3 21:49:12 10° N 21:53:00 18° NE 21:56:38 10° E
Cosmos 2082 Rocket 3.3 21:47:35 10° SW 21:53:02 45° NW 21:58:29 10° NNE
Terra 2.3 22:00:02 42° SW 22:01:12 53° W 22:05:53 10° NNW
Cosmos 2322 Rocket 2.2 21:59:09 10° NNW 22:04:51 72° ENE 22:06:13 52° SE
Okean 1 4.4 22:02:47 10° NNW 22:06:31 36° W 22:07:06 34° WSW
Cosmos 1238 Rocket 4.4 22:06:54 19° W 22:07:19 20° WNW 22:09:35 10° NNW
Cosmos 2100 Rocket 3.8 22:05:36 46° S 22:07:35 84° E 22:13:46 10° N
USA 234 3.8 22:06:06 36° SSW 22:07:51 42° SW 22:14:01 10° WNW
Meteor 1-11 Rocket 4.0 22:09:09 46° ESE 22:09:39 47° E 22:15:07 10° NNE
Cosmos 1437 Rocket 3.4 22:07:16 10° NNW 22:10:50 46° W 22:10:50 46° W
Cosmos 1242 Rocket 4.4 22:09:54 10° NNE 22:12:07 22° NE 22:12:07 22° NE
Cosmos 1869 Rocket 3.5 22:13:01 79° SW 22:13:14 83° W 22:17:43 10° N
SPOT 5 4.2 22:15:08 23° WSW 22:16:09 26° W 22:19:48 10° NW
Cosmos 2360 Rocket 2.6 22:13:28 10° NNW 22:19:02 53° ENE 22:20:19 44° E
ATLAS 3B R/B 3.0 22:21:12 41° ESE 22:21:12 41° ESE 22:27:11 10° NE
Geosat 3.8 22:20:48 70° SSE 22:21:24 90° SSE 22:26:29 10° NNW
Iridium 4 Rocket 3.0 22:21:45 74° W 22:21:50 74° W 22:26:05 10° N
Cosmos 2173 Rocket 3.9 22:21:11 46° SSW 22:23:10 81° W 22:29:20 10° N
Cosmos 1500 3.8 22:25:10 54° NW 22:25:10 54° NW 22:28:23 10° N
CRYOSAT 2 4.3 22:21:50 10° N 22:26:43 68° E 22:26:46 68° E
Cosmos 1980 Rocket 3.9 22:22:55 10° NW 22:27:02 21° W 22:28:51 18° SW
SL-4 R/B 2.7 22:23:36 10° W 22:27:13 45° NNW 22:27:13 45° NNW
ALOS 2 3.5 22:27:44 37° ENE 22:27:44 37° ENE 22:31:42 10° N
USA 238 DEB 4.2 22:21:40 10° WSW 22:28:13 59° NW 22:35:07 10° NE
USA 238 4.1 22:21:46 10° WSW 22:28:19 59° NW 22:35:13 10° NE
Cosmos 1725 Rocket 4.0 22:27:19 55° SE 22:28:28 65° E 22:34:44 10° NNE
Cosmos 1763 Rocket 4.1 22:25:21 10° NNW 22:30:24 45° WSW 22:31:09 42° SW
SL-08 R/B 4.3 22:32:19 60° SSE 22:33:19 72° E 22:39:23 10° NNE
Cosmos 1536 3.7 22:34:39 42° NE 22:34:39 42° NE 22:37:31 10° NNE
Cosmos 1674 Rocket 4.4 22:29:33 10° N 22:33:13 40° ENE 22:33:13 40° ENE
Cosmos 1666 3.7 22:37:32 42° NNE 22:37:32 42° NNE 22:40:07 10° NNE
Cosmos 2333 Rocket 3.4 22:34:08 10° NNW 22:39:25 35° NE 22:41:19 28° E
Cosmos 2016 Rocket 3.9 22:39:51 55° SSW 22:41:22 86° W 22:47:48 10° N
Cosmos 1271 Rocket 4.5 22:38:24 10° NNE 22:40:47 24° NE 22:40:47 24° NE
Meteor 1-13 Rocket 4.1 22:37:13 10° NNW 22:42:44 72° W 22:43:23 65° SW
Cosmos 2061 Rocket 3.9 22:41:22 57° SSW 22:42:47 85° W 22:49:02 10° N
Lacrosse 4 Rocket 3.6 22:45:24 17° ENE 22:45:24 17° ENE 22:46:39 10° NE
Cosmos 1459 Rocket 4.4 22:42:35 38° SW 22:44:53 58° WNW 22:51:10 10° N
MOS 1-B Rocket 3.8 22:39:46 10° NNE 22:45:29 76° WNW 22:46:44 55° SW
Cosmos 2221 Rocket 3.8 22:42:20 10° NNW 22:46:29 64° WNW 22:46:29 64° WNW
Cosmos 1733 Rocket 3.4 22:50:59 61° NNE 22:50:59 61° NNE 22:54:43 10° NNE
Okean 3 4.2 22:46:45 10° NNW 22:50:30 46° WNW 22:50:30 46° WNW
SL-27 R/B 4.4 22:53:08 27° NW 22:53:08 27° NW 22:55:21 10° N
Cosmos 1066 Rocket 4.0 22:47:30 10° N 22:53:17 82° ENE 22:53:46 74° SE
Cosmos 1864 Rocket 4.4 22:53:23 60° SSW 22:54:36 82° W 23:00:53 10° N
Meteor 1-23 Rocket 4.1 22:49:14 10° N 22:55:06 82° ENE 22:55:43 71° SE
CENTAUR R/B 3.0 22:51:50 19° WSW 22:56:22 61° NW 23:03:33 10° NE
Thor Agena Rocket 3.4 22:51:37 10° NNE 22:56:43 81° WNW 22:57:00 77° WSW
Cosmos 968 Rocket 4.5 22:59:01 34° ENE 22:59:01 34° ENE 23:02:45 10° NE
Cosmos 967 Rocket 4.4 22:53:59 10° NW 23:00:20 71° WSW 23:01:03 65° SSW
Cosmos 44 3.7 22:57:15 10° NW 23:01:32 54° W 23:01:32 54° W
Spot 4 4.3 23:06:33 49° W 23:06:33 49° W 23:11:03 10° NNW
Cosmos 2233 Rocket 3.9 23:14:31 67° SSW 23:15:27 88° W 23:21:50 10° N
Cosmos 1908 Rocket 4.3 23:18:33 46° NE 23:18:33 46° NE 23:21:52 10° NNE
SL-16 R/B 3.7 23:21:44 10° NW 23:26:07 23° WSW 23:26:08 23° WSW
Lacrosse 5 3.4 23:22:00 10° WNW 23:24:41 25° W 23:24:41 25° W
Cosmos 1833 4.1 23:28:44 71° WSW 23:29:14 77° WNW 23:34:56 10° NNE
Cosmos 2322 3.5 23:23:40 10° NNW 23:29:23 87° WSW 23:29:31 85° SSW
Cosmos 1378 Rocket 4.2 23:25:11 10° NNW 23:28:49 53° NW 23:28:49 53° NW
Cosmos 2219 Rocket 2.1 23:32:13 10° NNW 23:37:56 78° ENE 23:38:19 74° ESE
Cosmos 1975 Rocket 3.7 23:38:37 10° N 23:42:25 53° NE 23:42:25 53° NE
Cosmos 2333 4.2 23:38:00 10° NNW 23:43:44 69° WSW 23:43:44 69° WSW
Cosmos 1503 Rocket 4.2 23:45:55 63° E 23:45:55 63° E 23:50:54 10° NNE
Cosmos 1072 Rocket 4.4 23:46:51 66° SE 23:47:23 70° E 23:53:28 10° NNE
YAOGAN 11 4.5 23:48:26 67° N 23:48:26 67° N 23:52:27 10° NNW
Cosmos 2322 Rocket 3.9 23:44:22 10° NW 23:48:01 19° W 23:48:01 19° W
Helios 1A 3.7 23:49:48 50° NNW 23:49:48 50° NNW 23:53:01 10° NNW
SL-16 R/B 4.4 23:46:16 12° ESE 23:50:28 24° ENE 23:55:17 10° N
Cosmos 1486 Rocket 4.1 23:52:11 67° WNW 23:52:16 67° WNW 23:57:29 10° NNE
SL-16 R/B 4.5 23:49:19 10° N 23:53:26 20° NE 23:57:33 10° E
CZ-2D R/B 4.3 23:51:12 10° ENE 23:53:54 14° E 23:54:54 13° E
Sich 1 Rocket 4.5 23:55:31 43° NE 23:55:31 43° NE 23:58:54 10° NNE
